User: anonymous   Login
Location: ?????????
(38.0736°N, 23.2119°E)
Time: 03:59:30
(UTC+00:00)
Language:

Genesis I - Orbit

View from above orbital plane
View from above orbital plane
View from above satellite
View from above satellite

Ground track
Ground track

The orbit data is extracted from the following two-line orbital elements,

1 29252U 06029A   24164.75372326  .00016942  00000-0  44329-3 0  9996
2 29252  64.5140 181.0539 0024297 325.2707  34.6838 15.38580413989904
Epoch (UTC): 12 June 2024 18:05:21
Eccentricity: 0.0024297
inclination: 64.5140°
perigee height: 434 km
apogee height: 467 km
right ascension of ascending node: 181.0539°
argument of perigee: 325.2707°
revolutions per day: 15.38580413
mean anomaly at epoch: 34.6838°
orbit number at epoch: 98990

The dashed part of the orbit path shows where the satellite is in the earth's shadow,  

DLR